Regional Weather Roundup
Issued by NWS Upton, NY

Current Version | Previous Version | Text Only | Print | Product List | Glossary On
Versions: 1 2 3 4 5 6 7 8 9 10 11 12 13 14 15 16 17 18 19 20 21 22 23 24 25 26 27 28 29 30 31 32 33 34 35 36 37 38 39 40 41 42 43 44 45 46 47 48 49 50
000
ASUS41 KOKX 052004
RWROKX

REGIONAL WEATHER ROUNDUP
NATIONAL WEATHER SERVICE NEW YORK NY
300 PM EST FRI FEB 05 2016

NOTE: "FAIR" INDICATES FEW OR NO CLOUDS BELOW 12,000 FEET WITH NO
SIGNIFICANT WEATHER AND/OR OBSTRUCTIONS TO VISIBILITY.

NYZ071-072-176-178-NJZ106-104-052100-
NEW YORK CITY METRO AREA


CITY           SKY/WX    TMP DP  RH WIND       PRES   REMARKS
CENTRAL PARK   PTSUNNY   39  22  50 NW10G18   30.13R WCI  32
LAGUARDIA APRT MOSUNNY   41  26  55 NW17G23   30.10R
KENNEDY INTL   MOSUNNY   40  25  55 NW15G22   30.11R WCI  32
NEWARK/LIBERTY PTSUNNY   40  22  48 NW13G21   30.12R WCI  32
BRNX BOT. GARD   N/A     37  21  52 N10       30.11R WCI  30
TETERBORO      CLOUDY    40  18  41 NW15      30.10R WCI  32
$$

NYZ177-179-078>081-052100-
LONG ISLAND NEW YORK

CITY           SKY/WX    TMP DP  RH WIND       PRES   REMARKS
FARMINGDALE    SUNNY     38  27  64 NW12G17   30.09R WCI  30
ISLIP          CLOUDY    37  26  64 NW15      30.05R WCI  28
SHIRLEY        CLOUDY    34  28  79 NW12      30.06R WCI  25
RIVERHEAD        N/A     34  30  86 N1        30.07R
WESTHAMPTON    CLOUDY    33  28  81 NW12      30.06R WCI  24
EAST HAMPTON   LGT SNOW  31  28  90 N17G32    30.01R VSB 1   WCI  19
MONTAUK POINT    N/A     32  30  92 NW24G32   30.02R WCI  19
$$

NYZ052-065-067-052100-
HUDSON VALLEY

CITY           SKY/WX    TMP DP  RH WIND       PRES   REMARKS
WHITE PLAINS   MOSUNNY   39  15  37 NW21      30.06R WCI  29
NEWBURGH       PTSUNNY   39  18  41 MISG      30.09
MONTGOMERY     CLOUDY    39  15  37 NW15G26   30.10R WCI  31
POUGHKEEPSIE   SUNNY     42  12  29 N20G29    30.09R
ALBANY         MOSUNNY   39  10  30 N21G26    30.09R WCI  29
$$

NJZ001-105-106-008-010-013-015-019>022-104-052100-
NEW JERSEY

CITY           SKY/WX    TMP DP  RH WIND       PRES   REMARKS
NEWARK/LIBERTY PTSUNNY   40  22  48 NW13G21   30.12R WCI  32
TETERBORO      CLOUDY    40  18  41 NW15      30.10R WCI  32
CALDWELL       PTSUNNY   40  16  37 NW9G23    30.12R WCI  34
MORRISTOWN     PTSUNNY   39  19  45 NW12G20   30.13R WCI  32
SOMERVILLE     CLOUDY    39  20  46 NW15G26   30.14R WCI  31
SUSSEX         CLOUDY    38  16  40 NW9G18    30.13R WCI  31
ANDOVER          N/A     36  15  42 N9        30.14R WCI  29
TRENTON        CLOUDY    40  20  44 NW14G23   30.15R WCI  32
MILLVILLE      CLOUDY    40  27  59 NW12      30.20R WCI  33
ATLANTIC CITY  PTSUNNY   38  38 100 W6        30.18R WCI  33
WRIGHTSTOWN    CLOUDY    40  28  62 NW10      30.13R WCI  33
TOMS RIVER     PTSUNNY   37  30  75 W7        30.16R WCI  32
BELMAR         MOSUNNY   37  25  60 W12G20    30.13R WCI  30
$$

PAZ047>061-062-071-052100-
EASTERN PENNSYLVANIA

CITY           SKY/WX    TMP DP  RH WIND       PRES   REMARKS
PHILADELPHIA   PTSUNNY   43  20  39 W16       30.19R
ALLENTOWN      CLOUDY    39  17  41 NW16G28   30.18R WCI  30
SCRANTON       CLOUDY    34  15  46 NW12      30.18R WCI  25
$$

CTZ002-004>006-009-010-012-RIZ004-006-007-MAZ004-011-015-052100-
SOUTHERN NEW ENGLAND
 IN CT

CITY           SKY/WX    TMP DP  RH WIND       PRES   REMARKS
BRADLEY INTL   CLOUDY    34  22  61 N14       30.01S WCI  25
HARTFORD       CLOUDY    33  27  78 NW5       30.04R WCI  29
DANBURY        SUNNY     38  13  35 NW17G29   30.06S WCI  28
WTRBRY/OXFORD  NOT AVBL
BRIDGEPORT     MOSUNNY   38  22  52 NW18G26   30.05S WCI  28
MERIDEN        CLOUDY    36  22  56 NW13      30.04S WCI  27
NEW HAVEN      CLOUDY    36  26  67 NW13G22   30.04S WCI  27
CHESTER        FAIR      32  28  86 NW9       30.01R WCI  24
GROTON         LGT SNOW  30  30 100 N18G26    30.01R VSB 1   WCI  18
WILLIMANTIC    CLOUDY    32  24  72 N10G18    30.00R WCI  24

 IN RI

CITY           SKY/WX    TMP DP  RH WIND       PRES   REMARKS
PROVIDENCE     SNOW      29  28  96 N16G28    29.95F VSB 1/2 WCI  17
BLOCK ISLAND   CLOUDY    32  30  93 N20G29    29.95R VSB 1/2 WCI  20
WESTERLY       LGT SNOW  29  27  92 NW14G30   29.99R VSB 3/4 WCI  18

 IN MA

CITY           SKY/WX    TMP DP  RH WIND       PRES   REMARKS
BOSTON         LGT SNOW  29  29 100 NW16G24   29.95F VSB 3/4 WCI  17
WORCESTER      LGT SNOW  27  19  72 NW14G25   29.92S WCI  16
WESTFIELD      PTSUNNY   34  21  59 N14       30.01R WCI  25
PROVINCETOWN   LGT SNOW  33  32  96 N21G31    29.90R VSB 1   WCI  21
NANTUCKET      SNOW      35  32  88 N29G36    29.82F VSB 1/2 WCI  22
$$

ANZ330-335-338-340-345-350-353-355-052100-
COASTAL MARINE OBSERVATIONS


STATION/POSITION TIME  SKY/WX   TEMP    WIND        PRES    VSBY  WAVE
                                AIR SEA DIR/SP/G                  HT/PER
                 (UTC)          (F)     (DEG/KT/KT) (MB)    (MI)  (FT/S)
NY HARB ENTRANCE 1850            37 44  320/ 19/ 23 1018.1          4/ 5
4S FIRE IS       NOT AVBL
20S FIRE ISLAND  1850            35 46  340/ 31/ 39 1016.2          7/ 6
GREAT SOUTH BAY  NOT AVBL
23SW MTP         1950            34 47  320/ 31/ 37 1014.5          7/ 5
HUDSON CANYON    1850            38 51              1014.3         12/ 8
KINGS POINT      1900            36 40  350/  9/ 13 1018.4
EXECUTION ROCKS  NOT AVBL
CENTRAL LI SOUND 1915            34     340/ 17/ 23   N/A           3/ 4
EASTERN LI SOUND 1900            33 42  350/ 19/ 27   N/A
ROBBINS REEF     1900            37     290/ 11/ 12 1018.6
$$


>>>>>>>>>>>>>>>>>>>>>>>>>>>> KEY <<<<<<<<<<<<<<<<<<<<<<<<<<<
>                                                          <
>     SKY/WX - SKY CONDITION/PRESENT WEATHER               <
>     TMP    - TEMPERATURE IN FAHRENHEIT                   <
>     DP     - DEWPOINT IN FAHRENHEIT                      <
>     RH     - RELATIVE HUMIDITY IN PERCENT                <
>     WIND   - DIRECTION AND SPEED IN MPH                  <
>     PRES   - MEAN SEA LEVEL PRESSURE IN INCHES OF HG     <
>     WCI    - WIND CHILL INDEX                            <
>     VSB    - VISIBILITY IN MILES                         <
>     HX     - HEAT INDEX                                  <
>     TC     - TEMPERATURE IN CELSIUS                      <
>     VRB    - VARIABLE WIND DIRECTION                     <
>                                                          <
>>>>>>>>>>>>>>>>>>>>>>>>>>>> KEY <<<<<<<<<<<<<<<<<<<<<<<<<<<





USA.gov is the U.S. government's official web portal to all federal, state and local government web resources and services.